GW1037 Weather Reports


Display with metric or nautical units.
time (UTC)temp
F
wind
direction
speed
MPH
gust
MPH
rain 1hr
in
rain 24hr
in
rain mn
in
humidity
%
barometer
mb
20260510190307 77 133 0.0 0.0 0.00 0.00 0.00 74 1001.6
20260510185803 77 63 0.0 0.0 0.00 0.00 0.00 72 1001.5
20260510185305 77 103 0.0 0.0 0.00 0.00 0.00 72 1001.4
20260510184758 76 107 0.0 0.0 0.00 0.00 0.00 75 1001.6
20260510184254 75 122 0.0 0.0 0.00 0.00 0.00 77 1001.4
20260510183749 74 120 0.0 0.0 0.00 0.00 0.00 78 1001.5
20260510183244 76 317 0.0 0.0 0.00 0.00 0.00 76 1001.8
20260510182741 76 81 0.0 0.0 0.00 0.00 0.00 78 1001.8
20260510182236 74 94 0.0 0.0 0.00 0.00 0.00 80 1001.7
20260510181734 74 137 0.0 0.0 0.00 0.00 0.00 80 1001.8
20260510181231 75 100 0.0 0.0 0.00 0.00 0.00 79 1001.7
20260510180727 75 102 0.0 0.0 0.00 0.00 0.00 77 1001.7
20260510180224 75 114 0.0 0.0 0.00 0.00 0.00 78 1002.1
20260510175720 74 110 0.0 0.0 0.00 0.00 0.00 81 1001.9
20260510175216 74 104 0.0 0.0 0.00 0.00 0.00 82 1002.2
20260510174714 73 109 0.0 0.0 0.00 0.00 0.00 82 1002.0
20260510174211 73 105 0.0 0.0 0.00 0.00 0.00 82 1002.1
20260510173707 73 105 0.0 0.0 0.00 0.00 0.00 84 1002.0
20260510173203 72 99 0.0 0.0 0.00 0.00 0.00 87 1002.2
20260510172658 71 96 0.0 0.0 0.00 0.00 0.00 87 1002.5
20260510172154 71 97 0.0 0.0 0.00 0.00 0.00 87 1002.5
20260510171651 70 97 0.0 0.0 0.00 0.00 0.00 88 1002.5
20260510171149 70 99 0.0 0.0 0.00 0.00 0.00 88 1002.3
20260510170645 69 100 0.0 0.0 0.00 0.00 0.00 90 1002.5
20260510170142 69 105 0.0 0.0 0.00 0.00 0.00 92 1002.7
20260510165637 68 111 0.0 0.0 0.00 0.00 0.00 92 1002.7
20260510165133 68 101 0.0 0.0 0.00 0.00 0.00 92 1002.8
20260510164631 69 101 0.0 0.0 0.00 0.00 0.00 92 1002.8
20260510164128 68 111 0.0 0.0 0.00 0.00 0.00 92 1002.7
20260510163623 68 99 0.0 0.0 0.00 0.00 0.00 92 1002.8
20260510163120 69 105 0.0 0.0 0.00 0.00 0.00 92 1002.5
20260510162614 69 111 0.0 0.0 0.00 0.00 0.00 92 1002.4
20260510162111 69 104 0.0 0.0 0.00 0.00 0.00 92 1002.5
20260510161606 68 112 0.0 0.0 0.00 0.00 0.00 93 1002.6
20260510161104 68 96 0.0 0.0 0.00 0.00 0.00 93 1002.7
20260510160601 68 97 0.0 0.0 0.00 0.00 0.00 94 1002.5
20260510160100 68 100 0.0 0.0 0.00 0.00 0.00 95 1002.7
20260510155557 68 103 0.0 0.0 0.00 0.00 0.00 95 1002.5
20260510155054 67 103 0.0 0.0 0.00 0.00 0.00 95 1002.6
20260510154549 67 104 0.0 0.0 0.00 0.00 0.00 96 1002.7
20260510154045 67 107 0.0 0.0 0.00 0.00 0.00 96 1002.7
20260510153540 67 107 0.0 0.0 0.00 0.00 0.00 97 1002.7
20260510153037 67 107 0.0 0.0 0.00 0.00 0.00 98 1002.5
20260510152534 66 112 0.0 0.0 0.00 0.00 0.00 98 1002.8
20260510152030 66 107 0.0 0.0 0.00 0.00 0.00 99 1002.7
20260510151527 66 107 0.0 0.0 0.00 0.00 0.00 99 1002.5
20260510151024 66 111 0.0 0.0 0.00 0.00 0.00 99 1002.6
20260510150519 66 104 0.0 0.0 0.00 0.00 0.00 99 1002.8
20260510150015 66 103 0.0 0.0 0.00 0.00 0.00 99 1002.4
20260510145512 65 105 0.0 0.0 0.00 0.00 0.00 99 1002.6
20260510145008 65 118 0.0 0.0 0.00 0.00 0.00 99 1002.7
20260510144505 65 118 0.0 0.0 0.00 0.00 0.00 99 1002.5
20260510144001 64 117 0.0 0.0 0.00 0.00 0.00 99 1002.5
20260510143451 65 116 0.0 0.0 0.00 0.00 0.00 99 1002.4
20260510142948 65 118 0.0 0.0 0.00 0.00 0.00 99 1002.5
20260510142445 65 99 0.0 0.0 0.00 0.00 0.00 99 1002.6
20260510141941 65 105 0.0 0.0 0.00 0.00 0.00 99 1002.5
20260510141438 64 110 0.0 0.0 0.00 0.00 0.00 99 1002.5
20260510140935 64 100 0.0 0.0 0.00 0.00 0.00 99 1002.5
20260510140432 64 109 0.0 0.0 0.00 0.00 0.00 99 1002.4
20260510135930 64 109 0.0 0.0 0.00 0.00 0.00 99 1002.3
20260510135427 64 105 0.0 0.0 0.00 0.00 0.00 99 1002.4
20260510134924 64 104 0.0 0.0 0.00 0.00 0.00 99 1002.1
20260510134421 64 105 0.0 0.0 0.00 0.00 0.00 99 1002.3
20260510133917 64 104 0.0 0.0 0.00 0.00 0.00 99 1002.2
20260510133413 64 106 0.0 0.0 0.00 0.00 0.00 99 1002.4
20260510132909 64 105 0.0 0.0 0.00 0.00 0.00 99 1002.3
20260510132407 64 128 0.0 0.0 0.00 0.00 0.00 99 1002.2
20260510131903 64 107 0.0 0.0 0.00 0.00 0.00 99 1002.2
20260510131401 64 107 0.0 0.0 0.00 0.00 0.00 99 1002.1
20260510130857 64 77 0.0 0.0 0.00 0.00 0.00 99 1002.0
20260510130355 64 113 0.0 0.0 0.00 0.00 0.00 99 1001.8
20260510125851 64 113 0.0 0.0 0.00 0.00 0.00 99 1002.1
20260510125347 63 113 0.0 0.0 0.00 0.00 0.00 99 1001.9
20260510124845 63 97 0.0 0.0 0.00 0.00 0.00 99 1002.0
20260510124341 63 97 0.0 0.0 0.00 0.00 0.00 99 1002.0
20260510123837 63 97 0.0 0.0 0.00 0.00 0.00 99 1001.8
20260510123333 63 97 0.0 0.0 0.00 0.00 0.00 99 1001.7
20260510122829 63 97 0.0 0.0 0.00 0.00 0.00 99 1001.5
20260510122325 63 97 0.0 0.0 0.00 0.00 0.00 99 1001.5
20260510121822 63 99 0.0 0.0 0.00 0.00 0.00 99 1001.6
20260510121320 63 97 0.0 0.0 0.00 0.00 0.00 99 1001.5
20260510120816 63 97 0.0 0.0 0.00 0.00 0.00 99 1001.4
20260510120313 63 100 0.0 0.0 0.00 0.00 0.00 99 1001.2
20260510115809 63 100 0.0 0.0 0.00 0.00 0.00 99 1001.2
20260510115307 63 113 0.0 0.0 0.00 0.00 0.00 99 1001.3
20260510114802 63 113 0.0 0.0 0.00 0.00 0.00 99 1001.0
20260510114259 63 113 0.0 0.0 0.00 0.00 0.00 99 1001.0
20260510113754 63 113 0.0 0.0 0.00 0.00 0.00 99 1000.7
20260510113252 63 113 0.0 0.0 0.00 0.00 0.00 99 1000.8
20260510112747 63 113 0.0 0.0 0.00 0.00 0.00 99 1000.6
20260510112245 63 113 0.0 0.0 0.00 0.00 0.00 99 1000.4
20260510111740 63 113 0.0 0.0 0.00 0.00 0.00 99 1000.2
20260510111237 63 113 0.0 0.0 0.00 0.00 0.00 99 1000.2
20260510110737 63 113 0.0 0.0 0.00 0.00 0.00 99 1000.2
20260510110235 63 113 0.0 0.0 0.00 0.00 0.00 99 1000.1
20260510105734 63 116 0.0 0.0 0.00 0.00 0.00 99 1000.1
20260510105230 63 116 0.0 0.0 0.00 0.00 0.00 99 999.8
20260510104726 63 116 0.0 0.0 0.00 0.00 0.00 99 999.6
20260510104224 63 116 0.0 0.0 0.00 0.00 0.00 99 1000.1
20260510103720 63 116 0.0 0.0 0.00 0.00 0.00 99 999.6
20260510103218 62 116 0.0 0.0 0.00 0.00 0.00 99 999.5
20260510102717 62 116 0.0 0.0 0.00 0.00 0.00 99 999.9
20260510102213 62 116 0.0 0.0 0.00 0.00 0.00 99 999.7
20260510101711 62 116 0.0 0.0 0.00 0.00 0.00 99 999.6
20260510101209 62 116 0.0 0.0 0.00 0.00 0.00 99 999.6
20260510100704 62 116 0.0 0.0 0.00 0.00 0.00 99 999.5
20260510100203 62 116 0.0 0.0 0.00 0.00 0.00 99 999.4
20260510095658 62 116 0.0 0.0 0.00 0.00 0.00 99 999.3
20260510095153 62 116 0.0 0.0 0.00 0.00 0.00 99 999.5
20260510094652 62 115 0.0 0.0 0.00 0.00 0.00 99 999.1
20260510094148 62 115 0.0 0.0 0.00 0.00 0.00 99 999.0
20260510093644 62 115 0.0 0.0 0.00 0.00 0.00 99 999.0
20260510093142 62 124 0.0 0.0 0.00 0.00 0.00 99 998.9
20260510092638 62 91 0.0 0.0 0.00 0.00 0.00 99 998.9
20260510092133 62 91 0.0 0.0 0.00 0.00 0.00 99 998.7
20260510091629 62 91 0.0 0.0 0.00 0.00 0.00 99 998.8
20260510091126 62 91 0.0 0.0 0.00 0.00 0.00 99 998.6
20260510090623 62 91 0.0 0.0 0.00 0.00 0.00 99 998.5
20260510090119 62 91 0.0 0.0 0.00 0.00 0.00 99 998.5
20260510085614 63 91 0.0 0.0 0.00 0.00 0.00 99 998.4
20260510085109 63 91 0.0 0.0 0.00 0.00 0.00 99 998.5
20260510084606 63 91 0.0 0.0 0.00 0.00 0.00 99 998.4
20260510084103 63 91 0.0 0.0 0.00 0.00 0.00 99 998.2
20260510083559 63 91 0.0 0.0 0.00 0.00 0.00 99 998.5
20260510083055 63 91 0.0 0.0 0.00 0.00 0.00 99 998.3
20260510082553 63 91 0.0 0.0 0.00 0.00 0.00 99 998.5
20260510082048 63 91 0.0 0.0 0.00 0.00 0.00 99 998.3
20260510081543 63 91 0.0 0.0 0.00 0.00 0.00 99 998.5
20260510081039 63 91 0.0 0.0 0.00 0.00 0.00 99 998.0
20260510080538 63 91 0.0 0.0 0.00 0.00 0.00 99 998.3
20260510080035 63 91 0.0 0.0 0.00 0.00 0.00 99 998.0
20260510075527 63 91 0.0 0.0 0.00 0.00 0.00 99 998.0
20260510075024 63 91 0.0 0.0 0.00 0.00 0.00 99 998.2
20260510074522 63 91 0.0 0.0 0.00 0.00 0.00 99 998.2
20260510074017 63 91 0.0 0.0 0.00 0.00 0.00 99 998.1
20260510073513 63 91 0.0 0.0 0.00 0.00 0.00 99 998.2
20260510073010 63 91 0.0 0.0 0.00 0.00 0.00 99 998.3
20260510072507 63 91 0.0 0.0 0.00 0.00 0.00 99 998.0
20260510072002 63 91 0.0 0.0 0.00 0.00 0.00 99 998.4
20260510071458 63 91 0.0 0.0 0.00 0.00 0.00 99 998.2
20260510070957 63 91 0.0 0.0 0.00 0.00 0.00 99 998.4
20260510070454 63 91 0.0 0.0 0.00 0.00 0.00 99 998.3
20260510065949 63 91 0.0 0.0 0.00 0.00 0.00 99 998.3
20260510065447 63 91 0.0 0.0 0.00 0.00 0.00 99 998.3
20260510064942 63 91 0.0 0.0 0.00 0.00 0.00 99 998.4
20260510064440 63 91 0.0 0.0 0.00 0.00 0.00 99 998.5
20260510063936 63 91 0.0 0.0 0.00 0.00 0.00 99 998.6
20260510063432 63 91 0.0 0.0 0.00 0.00 0.00 99 998.5
20260510062931 63 91 0.0 0.0 0.00 0.00 0.00 99 998.6
20260510062431 63 91 0.0 0.0 0.00 0.00 0.00 99 998.6
20260510061926 63 91 0.0 0.0 0.00 0.00 0.00 99 998.9
20260510061423 63 91 0.0 0.0 0.00 0.00 0.00 99 998.7
20260510060919 63 91 0.0 0.0 0.00 0.00 0.00 99 998.8
20260510060417 63 91 0.0 0.0 0.00 0.00 0.00 99 998.7
20260510055913 63 91 0.0 0.0 0.00 0.00 0.00 99 998.8
20260510055408 62 91 0.0 0.0 0.00 0.00 0.00 99 998.6
20260510054907 62 91 0.0 0.0 0.00 0.00 0.00 99 998.5
20260510054402 62 91 0.0 0.0 0.00 0.00 0.00 99 998.6
20260510053857 62 91 0.0 0.0 0.00 0.00 0.00 99 998.8
20260510053353 62 91 0.0 0.0 0.00 0.00 0.00 99 998.7
20260510052849 62 91 0.0 0.0 0.00 0.00 0.00 99 998.9
20260510052345 62 91 0.0 0.0 0.00 0.00 0.00 99 999.0
20260510051842 62 91 0.0 0.0 0.00 0.00 0.00 99 999.0
20260510051338 62 91 0.0 0.0 0.00 0.00 0.00 99 998.9
20260510050835 62 91 0.0 0.0 0.00 0.00 0.00 99 998.8
20260510050332 63 91 0.0 0.0 0.00 0.00 0.00 99 998.7
20260510045829 63 91 0.0 0.0 0.00 0.00 0.00 99 998.9
20260510045326 63 91 0.0 0.0 0.00 0.00 0.00 99 998.7
20260510044823 63 91 0.0 0.0 0.00 0.00 0.00 99 998.9
20260510044320 63 91 0.0 0.0 0.00 0.00 0.00 99 998.9
20260510043816 63 91 0.0 0.0 0.00 0.00 0.00 99 998.9
20260510043312 63 91 0.0 0.0 0.00 0.00 0.00 99 998.6
20260510042810 63 91 0.0 0.0 0.00 0.00 0.00 99 998.8
20260510042307 63 91 0.0 0.0 0.00 0.00 0.00 99 998.9
20260510041802 64 91 0.0 0.0 0.00 0.00 0.00 99 998.9
20260510041259 64 91 0.0 0.0 0.00 0.00 0.00 99 999.1
20260510040757 64 91 0.0 0.0 0.00 0.00 0.00 99 999.0
20260510040248 64 91 0.0 0.0 0.00 0.00 0.00 99 999.0
20260510035743 64 91 0.0 0.0 0.00 0.00 0.00 99 999.0
20260510035239 64 91 0.0 0.0 0.00 0.00 0.00 99 999.2
20260510034735 64 91 0.0 0.0 0.00 0.00 0.00 99 999.1
20260510034233 64 91 0.0 0.0 0.00 0.00 0.00 99 998.9
20260510033729 64 91 0.0 0.0 0.00 0.00 0.00 99 998.9
20260510033227 65 91 0.0 0.0 0.00 0.00 0.00 99 999.0
20260510032723 65 91 0.0 0.0 0.00 0.00 0.00 99 999.2
20260510032219 65 91 0.0 0.0 0.00 0.00 0.00 99 999.2
20260510031714 65 91 0.0 0.0 0.00 0.00 0.00 99 999.4
20260510031211 65 91 0.0 0.0 0.00 0.00 0.00 99 999.0
20260510030709 65 91 0.0 0.0 0.00 0.00 0.00 99 999.3
20260510030208 65 91 0.0 0.0 0.00 0.00 0.00 99 998.9
20260510025705 65 91 0.0 0.0 0.00 0.00 0.00 99 998.8
20260510025202 66 91 0.0 0.0 0.00 0.00 0.00 99 998.7
20260510024659 66 91 0.0 0.0 0.00 0.00 0.00 99 998.9
20260510024155 66 91 0.0 0.0 0.00 0.00 0.00 99 999.0
20260510023651 66 91 0.0 0.0 0.00 0.00 0.00 99 999.1
20260510023148 66 91 0.0 0.0 0.00 0.00 0.00 99 998.9
20260510022643 66 91 0.0 0.0 0.00 0.00 0.00 99 998.7
20260510022139 66 91 0.0 0.0 0.00 0.00 0.00 98 998.6
20260510021634 67 91 0.0 0.0 0.00 0.00 0.00 98 998.7
20260510021131 67 91 0.0 0.0 0.00 0.00 0.00 98 998.8
20260510020626 67 91 0.0 0.0 0.00 0.00 0.00 98 998.5
20260510020121 67 91 0.0 0.0 0.00 0.00 0.00 98 998.3
20260510015618 67 91 0.0 0.0 0.00 0.00 0.00 97 998.3
20260510015114 67 91 0.0 0.0 0.00 0.00 0.00 97 998.2
20260510014610 67 91 0.0 0.0 0.00 0.00 0.00 97 998.3
20260510014108 67 91 0.0 0.0 0.00 0.00 0.00 97 998.0
20260510013601 67 91 0.0 0.0 0.00 0.00 0.00 96 997.9
20260510013057 67 91 0.0 0.0 0.00 0.00 0.00 96 997.7
20260510012551 67 93 0.0 0.0 0.00 0.00 0.00 96 997.8
20260510012048 67 93 0.0 0.0 0.00 0.00 0.00 96 997.7
20260510011548 67 93 0.0 0.0 0.00 0.00 0.00 96 997.6
20260510011044 67 94 0.0 0.0 0.00 0.00 0.00 96 997.2
20260510010541 67 94 0.0 0.0 0.00 0.00 0.00 95 997.4
20260510010038 68 94 0.0 0.0 0.00 0.00 0.00 95 997.4
20260510005533 68 94 0.0 0.0 0.00 0.00 0.00 95 997.4
20260510005031 68 94 0.0 0.0 0.00 0.00 0.00 95 997.3
20260510004529 68 94 0.0 0.0 0.00 0.00 0.00 94 997.1
20260510004027 68 94 0.0 0.0 0.00 0.00 0.00 94 997.1
20260510003523 68 100 0.0 0.0 0.00 0.00 0.00 94 997.4
20260510003018 68 100 0.0 0.0 0.00 0.00 0.00 94 997.3
20260510002514 68 104 0.0 0.0 0.00 0.00 0.00 94 997.1
20260510002011 69 94 0.0 0.0 0.00 0.00 0.00 94 997.1
20260510001508 69 96 0.0 0.0 0.00 0.00 0.00 93 997.2
20260510001006 69 109 0.0 0.0 0.00 0.00 0.00 93 997.2
20260510000501 69 100 0.0 0.0 0.00 0.00 0.00 93 996.9
20260509235958 69 100 0.0 0.0 0.00 0.00 0.00 92 997.0
20260509235455 69 100 0.0 0.0 0.00 0.00 0.00 92 997.1
20260509234951 69 100 0.0 0.0 0.00 0.00 0.00 91 996.7
20260509234448 69 101 0.0 0.0 0.00 0.00 0.00 90 996.4
20260509233946 69 102 0.0 0.0 0.00 0.00 0.00 89 996.4
20260509233443 70 102 0.0 0.0 0.00 0.00 0.00 89 996.6
20260509232939 70 102 0.0 0.0 0.00 0.00 0.00 88 996.4
20260509232438 70 102 0.0 0.0 0.00 0.00 0.00 88 996.2
20260509231933 70 102 0.0 0.0 0.00 0.00 0.00 88 996.3
20260509231429 70 102 0.0 0.0 0.00 0.00 0.00 89 996.3
20260509230928 70 102 0.0 0.0 0.00 0.00 0.00 88 996.5
20260509230424 71 102 0.0 0.0 0.00 0.00 0.00 87 996.4
20260509225920 71 102 0.0 0.0 0.00 0.00 0.00 86 996.4
20260509225417 71 102 0.0 0.0 0.00 0.00 0.00 86 996.5
20260509224913 71 103 0.0 0.0 0.00 0.00 0.00 86 996.2
20260509224403 71 103 0.0 0.0 0.00 0.00 0.00 85 996.0
20260509223900 72 103 0.0 0.0 0.00 0.00 0.00 84 996.2
20260509223351 72 104 0.0 0.0 0.00 0.00 0.00 83 996.1
20260509222848 72 96 0.0 0.0 0.00 0.00 0.00 84 996.4
20260509222343 72 109 0.0 0.0 0.00 0.00 0.00 84 996.1
20260509221838 72 109 0.0 0.0 0.00 0.00 0.00 83 996.0
20260509221336 72 100 0.0 0.0 0.00 0.00 0.00 83 995.9
20260509220831 72 110 0.0 0.0 0.00 0.00 0.00 82 995.9
20260509220328 72 84 0.0 0.0 0.00 0.00 0.00 80 995.9
20260509215823 72 140 0.0 0.0 0.00 0.00 0.00 80 995.9
20260509215320 72 86 0.0 0.0 0.00 0.00 0.00 81 996.0
20260509214817 73 91 0.0 0.0 0.00 0.00 0.00 80 995.8
20260509214314 73 89 0.0 0.0 0.00 0.00 0.00 80 995.7
20260509213811 73 92 0.0 0.0 0.00 0.00 0.00 79 995.8
20260509213307 73 93 0.0 0.0 0.00 0.00 0.00 79 995.8
20260509212804 73 86 0.0 0.0 0.00 0.00 0.00 80 995.7
20260509212305 73 100 0.0 0.0 0.00 0.00 0.00 80 995.7
20260509211757 73 101 0.0 0.0 0.00 0.00 0.00 79 995.9
20260509211253 73 102 0.0 0.0 0.00 0.00 0.00 77 995.7
20260509210750 74 104 0.0 0.0 0.00 0.00 0.00 76 995.7
20260509210248 73 109 0.0 0.0 0.00 0.00 0.00 77 995.7
20260509205747 74 91 0.0 0.0 0.00 0.00 0.00 76 995.7
20260509205242 74 114 0.0 0.0 0.00 0.00 0.00 80 995.6
20260509204738 73 91 0.0 0.0 0.00 0.00 0.00 78 995.9
20260509204235 73 113 0.0 0.0 0.00 0.00 0.00 79 995.6
20260509203731 74 111 0.0 0.0 0.00 0.00 0.00 74 995.7
20260509203229 74 88 0.0 0.0 0.00 0.00 0.00 73 995.6
20260509202725 74 135 0.0 0.0 0.00 0.00 0.00 72 995.8
20260509202221 75 119 0.0 0.0 0.00 0.00 0.00 72 996.0
20260509201715 75 125 0.0 0.0 0.00 0.00 0.00 76 995.9
20260509201212 74 99 0.0 0.0 0.00 0.00 0.00 78 995.6
20260509200709 74 100 0.0 0.0 0.00 0.00 0.00 75 995.7
20260509200203 75 137 0.0 0.0 0.00 0.00 0.00 73 995.7
20260509195659 74 125 0.0 0.0 0.00 0.00 0.00 76 996.0
20260509195155 74 124 0.0 0.0 0.00 0.00 0.00 75 996.1
20260509194649 75 125 0.0 0.0 0.00 0.00 0.00 76 995.9
20260509194146 74 127 0.0 0.0 0.00 0.00 0.00 76 996.0
20260509193642 75 152 0.0 0.0 0.00 0.00 0.00 74 996.2
20260509193138 75 98 0.0 0.0 0.00 0.00 0.00 75 996.2
20260509192635 74 98 0.0 0.0 0.00 0.00 0.00 76 996.1
20260509192129 74 152 0.0 0.0 0.00 0.00 0.00 75 996.2
20260509191624 73 113 0.0 0.0 0.00 0.00 0.00 78 996.3
20260509191121 73 121 0.0 0.0 0.00 0.00 0.00 76 996.2
20260509190617 73 125 0.0 0.0 0.00 0.00 0.00 78 996.4